WA8SIE Weather Reports


time (UTC)temp
C
wind
direction
speed
KPH
gust
KPH
rain 1hr
cm
rain 24hr
cm
rain mn
cm
humidity
%
barometer
mb
20260505153013 23 178 3.2 0.0 0.00 0.00 0.00 44 1006.4
20260505152511 23 203 8.0 0.0 0.00 0.00 0.00 46 1006.5
20260505152011 23 204 3.2 0.0 0.00 0.00 0.00 44 1006.5
20260505151512 23 210 24.1 0.0 0.00 0.00 0.00 44 1006.5
20260505151011 23 205 9.7 0.0 0.00 0.00 0.00 46 1006.4
20260505150512 22 219 0.0 0.0 0.00 0.00 0.00 46 1006.4
20260505140511 22 215 4.8 0.0 0.00 0.00 0.00 48 1006.3
20260505124511 20 223 4.8 0.0 0.00 0.00 0.00 51 1006.6
20260505124011 20 188 0.0 0.0 0.00 0.00 0.00 52 1006.4
20260505123511 20 217 8.0 0.0 0.00 0.00 0.00 53 1006.4
20260505123010 19 189 0.0 0.0 0.00 0.00 0.00 54 1006.4
20260505122510 19 134 0.0 0.0 0.00 0.00 0.00 56 1006.4
20260505122012 18 143 0.0 0.0 0.00 0.00 0.00 56 1006.4
20260505121510 18 176 0.0 0.0 0.00 0.00 0.00 57 1006.4
20260505120510 17 151 0.0 0.0 0.00 0.00 0.00 61 1006.3
20260505120010 17 133 1.6 0.0 0.00 0.00 0.00 64 1006.3
20260505115510 17 134 0.0 0.0 0.00 0.00 0.00 62 1006.2
20260505115010 17 134 0.0 0.0 0.00 0.00 0.00 62 1006.2
20260505114510 17 134 0.0 0.0 0.00 0.00 0.00 62 1006.2
20260505114010 17 134 0.0 0.0 0.00 0.00 0.00 63 1005.8
20260505113510 17 217 0.0 0.0 0.00 0.00 0.00 62 1005.8
20260505113010 17 217 0.0 0.0 0.00 0.00 0.00 61 1005.8
20260505112512 16 217 0.0 0.0 0.00 0.00 0.00 61 1005.9
20260505111510 16 217 0.0 0.0 0.00 0.00 0.00 61 1005.9
20260505111011 16 133 0.0 0.0 0.00 0.00 0.00 63 1005.8
20260505110510 16 132 0.0 0.0 0.00 0.00 0.00 63 1005.8
20260505102012 16 248 0.0 0.0 0.00 0.00 0.00 62 1005.6
20260505101510 16 249 0.0 0.0 0.00 0.00 0.00 62 1005.6
20260505100512 16 211 6.4 0.0 0.00 0.00 0.00 63 1005.4
20260505100010 16 218 0.0 0.0 0.00 0.00 0.00 62 1005.4
20260505095511 16 218 0.0 0.0 0.00 0.00 0.00 62 1005.2
20260505095011 16 217 0.0 0.0 0.00 0.00 0.00 62 1005.2
20260505094511 16 217 0.0 0.0 0.00 0.00 0.00 60 1005.2
20260505094011 16 217 0.0 0.0 0.00 0.00 0.00 60 1005.0
20260505093511 17 218 0.0 0.0 0.00 0.00 0.00 58 1005.0
20260505093011 17 89 0.0 0.0 0.00 0.00 0.00 58 1005.0
20260505092011 17 197 0.0 0.0 0.00 0.00 0.00 57 1004.7
20260505091511 17 196 0.0 0.0 0.00 0.00 0.00 57 1004.7
20260505091011 17 197 0.0 0.0 0.00 0.00 0.00 56 1004.7
20260505090511 17 203 0.0 0.0 0.00 0.00 0.00 56 1004.7
20260505090011 17 203 0.0 0.0 0.00 0.00 0.00 56 1004.7
20260505085511 18 204 0.0 0.0 0.00 0.00 0.00 55 1004.7
20260505085011 18 205 0.0 0.0 0.00 0.00 0.00 54 1004.7
20260505084511 18 202 0.0 0.0 0.00 0.00 0.00 54 1004.7
20260505084011 18 226 0.0 0.0 0.00 0.00 0.00 54 1004.7
20260505083511 18 191 9.7 0.0 0.00 0.00 0.00 54 1004.7
20260505082511 18 194 0.0 0.0 0.00 0.00 0.00 54 1004.7
20260505081511 18 193 4.8 0.0 0.00 0.00 0.00 54 1004.7
20260505081011 18 205 0.0 0.0 0.00 0.00 0.00 54 1004.8
20260505080511 17 192 0.0 0.0 0.00 0.00 0.00 55 1004.8
20260505080011 17 191 3.2 0.0 0.00 0.00 0.00 55 1004.8
20260505075513 17 188 0.0 0.0 0.00 0.00 0.00 56 1004.7
20260505074511 17 188 0.0 0.0 0.00 0.00 0.00 56 1004.7
20260505074011 17 188 1.6 0.0 0.00 0.00 0.00 55 1004.5
20260505073511 17 188 0.0 0.0 0.00 0.00 0.00 56 1004.5
20260505073011 17 188 0.0 0.0 0.00 0.00 0.00 56 1004.5
20260505072511 17 200 0.0 0.0 0.00 0.00 0.00 57 1004.5
20260505072011 16 200 0.0 0.0 0.00 0.00 0.00 58 1004.5
20260505071511 16 199 0.0 0.0 0.00 0.00 0.00 59 1004.5
20260505071011 16 199 0.0 0.0 0.00 0.00 0.00 60 1004.6
20260505070511 16 199 0.0 0.0 0.00 0.00 0.00 60 1004.6
20260505070011 16 199 0.0 0.0 0.00 0.00 0.00 60 1004.6
20260505065511 15 199 0.0 0.0 0.00 0.00 0.00 62 1004.7
20260505065011 15 199 4.8 0.0 0.00 0.00 0.00 65 1004.7
20260505064511 15 199 0.0 0.0 0.00 0.00 0.00 68 1004.7
20260505064011 14 199 0.0 0.0 0.00 0.00 0.00 70 1004.6
20260505063511 14 128 0.0 0.0 0.00 0.00 0.00 72 1004.6
20260505063013 14 127 0.0 0.0 0.00 0.00 0.00 74 1004.6
20260505062512 14 128 0.0 0.0 0.00 0.00 0.00 75 1004.6
20260505062011 14 128 0.0 0.0 0.00 0.00 0.00 75 1004.6
20260505061511 14 128 0.0 0.0 0.00 0.00 0.00 75 1004.6
20260505061011 14 128 0.0 0.0 0.00 0.00 0.00 75 1004.7
20260505060512 14 128 0.0 0.0 0.00 0.00 0.00 76 1004.7
20260505060011 13 128 0.0 0.0 0.00 0.00 0.00 77 1004.7
20260505055511 13 128 0.0 0.0 0.00 0.00 0.00 77 1004.5
20260505055010 13 128 0.0 0.0 0.00 0.00 0.00 78 1004.5
20260505054510 14 128 0.0 0.0 0.00 0.00 0.00 78 1004.5
20260505054011 14 128 0.0 0.0 0.00 0.00 0.00 78 1004.5
20260505053511 14 128 0.0 0.0 0.00 0.00 0.00 78 1004.5
20260505053011 14 129 0.0 0.0 0.00 0.00 0.00 78 1004.5
20260505052511 14 128 0.0 0.0 0.00 0.00 0.00 78 1004.4
20260505052011 14 128 0.0 0.0 0.00 0.00 0.00 78 1004.4
20260505051011 14 128 0.0 0.0 0.00 0.00 0.00 78 1004.4